KRKDKAUG

Guest
Details From KRKD - Knox Co Rgnl
To KAUG - Augusta State
Flight Number -
Tags Routegen
Created
Modified
Stats Distance 34 nm / 63 km
Max Altitude 0 ft / 0 m
Waypoints 2
Social Downloads 1
Likes 0
Share VATSIM

Download

Looking for another format? Having issues loading an existing format? Contact us
Advertisement - Login to hide

Notes

None

Route

KRKD KAUG

ID Type Via Altitude Latitude Longitude Leg Dist Tot Dist Heading (true) Name
O KRKD APT - 0 ft / 0 m 44.06152˚ -69.10837˚ - 0 nm - -
O KAUG APT - 0 ft / 0 m 44.32766˚ -69.80368˚ 33 nm 33 nm 298° / 298° -

Altitude Profile

Advertisement - Login to hide

KRKD

Details ICAO KRKD (RKD)
Name KNOX CO RGNL
Region United States
Timezone America/New_York (UTC-4.0)
Stats Elevation 56 ft / 17 m (AMSL)
Location 44.060266° -69.099207°
Runways 2
Magnetic Variation 15.805° W

METAR

KRKD 270456Z AUTO 06009G14KT 10SM CLR 11/08 A3011 RMK AO2 SLP196 T01110078 402220111

Decode

TAF

KRKD 262333Z 2700/2724 VRB04KT P6SM SCT070 BKN120 FM270100 07010KT P6SM SCT120 BKN200 FM271300 09010KT P6SM BKN250 AMD LTD TO CLD VIS AND WIND

Decode

Departure Runways

ID Width Length Bearing (true) Bearing (mag) Surface Threshold Offset Overrun Length
03 100 ft / 30 m 3,903 ft / 1,190 m 13.39° 29.19° Asphalt 0 ft / 0 m 0 ft / 0 m
13 100 ft / 30 m 4,997 ft / 1,523 m 110.98° 126.78° Asphalt 0 ft / 0 m 0 ft / 0 m
21 100 ft / 30 m 3,903 ft / 1,190 m 193.39° 209.19° Asphalt 0 ft / 0 m 0 ft / 0 m
31 100 ft / 30 m 4,997 ft / 1,523 m 291.00° 306.80° Asphalt 0 ft / 0 m 0 ft / 0 m

KAUG

Details ICAO KAUG (AUG)
Name AUGUSTA STATE
Region United States
Timezone America/New_York (UTC-4.0)
Stats Elevation 352 ft / 107 m (AMSL)
Location 44.320271° -69.796453°
Runways 2
Magnetic Variation 15.637° W

METAR

KAUG 270453Z AUTO 02005KT 10SM CLR 13/06 A3009 RMK AO2 SLP188 T01330061 402330133

Decode

TAF

KAUG 262333Z 2700/2724 VRB04KT P6SM SCT060 BKN100 FM270400 03009KT P6SM BKN050 FM271300 10009KT P6SM OVC050

Decode

Destination Runways

ID Width Length Bearing (true) Bearing (mag) Surface Threshold Offset Overrun Length
08 75 ft / 23 m 2,699 ft / 823 m 61.97° 77.61° Asphalt 0 ft / 0 m 0 ft / 0 m
17 150 ft / 46 m 5,003 ft / 1,525 m 153.18° 168.82° Asphalt 0 ft / 0 m 0 ft / 0 m
26 75 ft / 23 m 2,699 ft / 823 m 241.98° 257.62° Asphalt 0 ft / 0 m 0 ft / 0 m
35 150 ft / 46 m 5,003 ft / 1,525 m 333.19° 348.83° Asphalt 0 ft / 0 m 0 ft / 0 m

Approach Navaids

Runway Type Ident Frequency Range Bearing (true) Bearing (mag) Slope Elevation
17 Localiser IAUG 108.70 MHz 18 nm / 33 km 153.18° 168.81° - 308 ft / 94 m (AMSL)
17 Glidescope IAUG 108.70 MHz 10 nm / 19 km 153.19° 168.82° 3.00° 321 ft / 98 m (AMSL)

Popular Alternatives